Weather Roundup
Issued by NWS Chicago, IL

Home | Current Version | Previous Version | Graphics & Text | Print | Product List | Glossary On
Versions: 1 2 3 4 5 6 7 8 9 10 11 12 13 14 15 16 17 18 19 20 21 22 23 24 25 26 27 28 29 30 31 32 33 34 35 36 37 38 39 40 41 42 43 44 45 46 47 48 49 50
497
NZUS59 KLOT 190712
HRRLOT

CHICAGO AREA WEATHER ROUNDUP
NATIONAL WEATHER SERVICE CHICAGO/ROMEOVILLE IL
100 AM CST SUN FEB 19 2017

NOTE: "FAIR" INDICATES FEW OR NO CLOUDS BELOW 12,000 FEET WITH NO
SIGNIFICANT WEATHER AND/OR OBSTRUCTIONS TO VISIBILITY.

* THESE STATIONS ARE NOT UNDER NWS QUALITY CONTROL. THEY ALSO MAY NOT
  REPORT WEATHER SUCH AS PRECIPITATION OR FOG.

ILZ005-006-012>014-019>023-190800-
NORTHEAST ILLINOIS

CITY           SKY/WX    TMP DP  RH WIND       PRES   REMARKS
OHARE          CLEAR     42  36  79 W3        29.86R
MIDWAY         CLEAR     45  34  65 SW3       29.87R
AURORA         CLEAR     33  29  85 W6        29.88R WCI  28
LANSING*       CLEAR     37  36  97 CALM      29.87R
JOLIET*        CLEAR     39  36  90 CALM      29.88R
WAUKEGAN       PTCLDY    45  39  79 NW6       29.86R
DUPAGE AIRPORT CLEAR     35  30  82 N3        29.87R
WHEELING       CLEAR     38  34  85 CALM      29.88R
KANKAKEE*      CLEAR     39  36  88 CALM      29.88R
MORRIS*        CLEAR     38  33  84 CALM      29.87R
LEWIS AIRPORT* CLEAR     43  39  86 CALM      29.87R
NORTHERLY ISL    N/A     43  31  63 NE1         N/A
$$

WIZ051-052-058>065-066-070>072-190800-
SOUTHEAST WISCONSIN

CITY           SKY/WX    TMP DP  RH WIND       PRES   REMARKS
MILWAUKEE      PTCLDY    47  34  60 CALM      29.86S
KENOSHA*       CLEAR     39  34  82 W3        29.87R
RACINE*        CLEAR     46  35  65 W7        29.88R
WAUKESHA         N/A     37  32  81 W3        29.87R
WEST BEND      PTCLDY    43  30  61 W3        29.85S
$$

INZ001>003-010>013-019-020-190800-
NORTHWEST INDIANA

CITY           SKY/WX    TMP DP  RH WIND       PRES   REMARKS
GARY*          CLEAR     35  32  90 CALM      29.87R
MICHIGAN CITY* NOT AVBL
RENSSELAER*    NOT AVBL
VALPARAISO     CLEAR     40  39  97 CALM      29.86S
$$

LMZ740>746-190800-
SOUTHERN LAKE MICHIGAN

STATION/POSITION TIME  SKY/WX   TEMP WIND        PRES    VSBY
                                AIR  DIR/SP/G
                 (UTC)          (F)  (DEG/KT/KT) (MB)    (MI)
HARRISON CRIB    0640            54  340/  5/  5   N/A
BURNHAM HARBOR   0700            44   CALM  /  4   N/A
CALUMET HARBOR   0648            44  240/  2/  2 1010.8R
BURNS HARBOR     0640            40  290/  2/  2 1011.9R
MICHIGAN CITY    0640            40  200/  4/  4   N/A
$$

ABBREVIATIONS USED IN REMARKS
   TC - TEMPERATURE IN CELSIUS
  WCI - WIND CHILL INDEX
   HX - HEAT INDEX
  VSB - VISIBILITY
$$




USA.gov is the U.S. government's official web portal to all federal, state and local government web resources and services.